Hourly Data Report for October 31, 2014

All times are specified in Local Standard Time (LST). Add 1 hour to adjust for Daylight Saving Time where and when it is observed.

PENTICTON A
BRITISH COLUMBIA

49°27'45.000" N
119°36'08.000" W
344.40 m
1126146
71889
YYF

Download Data

Hourly Data (October 2014)
Hourly Data Report for October 31, 2014
Temp Definition
°C
Dew Point Temp Definition
°C
Rel Hum Definition
%
Wind Dir Definition
10's deg

Wind Spd Definition
km/h
Visibility Definition
km
Stn Press Definition
kPa
Hmdx Definition


Wind Chill Definition


Weather Definition


TIME
00:00 Legend Double Dagger 11.1 9.0 87 16 13 19.3 96.70     Rain Showers
01:00 Legend Double Dagger 10.8 9.2 90 16 16 16.1 96.70     Rain Showers
02:00 Legend Double Dagger 10.7 9.3 91 15 17 12.9 96.67     Rain Showers
03:00 Legend Double Dagger 10.7 9.5 92 18 11 12.9 96.62     Rain
04:00 Legend Double Dagger 10.6 9.5 93 13 7 12.9 96.60     Rain
05:00 Legend Double Dagger 10.3 9.4 94 3 4 12.9 96.57     Rain
06:00 Legend Double Dagger 9.9 9.3 96 35 6 4.8 96.56     Rain,Fog
07:00 Legend Double Dagger 10.1 9.5 96 35 7 9.7 96.53     Rain,Fog
08:00 Legend Double Dagger 10.4 10.0 97 19 8 24.1 96.48     LegendNANA
09:00 Legend Double Dagger 10.7 9.6 93 11 4 24.1 96.47     LegendNANA
10:00 Legend Double Dagger 11.1 9.7 91 20 4 24.1 96.48     Cloudy
11:00 Legend Double Dagger 12.3 9.7 84 15 6 24.1 96.43     LegendNANA
12:00 Legend Double Dagger 12.5 9.7 83 16 17 24.1 96.41     LegendNANA
13:00 Legend Double Dagger 12.5 9.7 83 17 17 24.1 96.43     Cloudy
14:00 Legend Double Dagger 12.8 9.3 79 20 23 24.1 96.47     LegendNANA
15:00 Legend Double Dagger 11.7 9.6 87 19 24 24.1 96.49     LegendNANA
16:00 Legend Double Dagger 11.7 9.5 86 22 13 24.1 96.56     Cloudy
17:00 Legend Double Dagger 11.6 9.4 86 16 10 24.1 96.63     LegendNANA
18:00 Legend Double Dagger 11.1 9.2 88 25 5 24.1 96.70     LegendNANA
19:00 Legend Double Dagger 10.0 8.6 91 35 9 24.1 96.76     Cloudy
20:00 Legend Double Dagger 9.4 8.5 94 30 3 24.1 96.80     LegendNANA
21:00 Legend Double Dagger 8.8 7.6 92 6 3 24.1 96.88     LegendNANA
22:00 Legend Double Dagger 8.0 6.6 91 6 7 24.1 96.87     Mostly Cloudy
23:00 Legend Double Dagger 8.3 6.3 87 35 11 24.1 96.88     LegendNANA

Notes on Data Quality.

Legend

  • E = Estimated
  • M = Missing
  • NA = Not Available
  • ‡ = Partner data that is not subject to review by the National Climate Archives
Date modified: